Location: Cortada Guamacho
(10.5667°N, 67.0833°W)
Time: 22:01:07
(UTC+00:00)

SWIFT - Pass Details

Date: 12 July 2022
Orbit: 539 x 553 km, 20.6° (Epoch: 15 August)

Event Time Altitude Azimuth Distance (km) Brightness Sun altitude
Rises 00:17:25 0° 294° (WNW) 2,708 7.5 -19.2°
Reaches altitude 10° 00:20:10 10° 312° (NW) 1,815 6.1 -19.8°
Maximum altitude 00:23:20 20° 0° (N) 1,287 4.5 -20.5°
Enters shadow 00:25:38 14° 40° (NE) 1,589 4.5 -21.0°
